RH
21 28 34 30 43 43 51 60 63 52 45 48 55 61 60 51 55 63 62 62 60 59 56 57 54 54 55 57 86 92 74 66 60 56 53 53 66 68 69 64 53 44 52 50
27 29 26 26 35 41 49 59 53 49 43 47 57 56 50 55 61 61 61 61 60 58 61 57 52 50 53 55 65 92 72 68 64 56 55 57 63 68 66 60 46 36 46 41
31 22 25 26 30 44 45 52 55 54 49 52 53 56 52 43 48 55 55 55 58 56 59 62 56 48 52 53 55 71 79 70 66 56 54 52 54 60 54 48 44 36 34 36
22 20 26 30 30 38 45 38 46 53 54 66 49 71 62 53 48 53 56 61 61 58 58 57 56 55 52 53 52 57 63 62 58 55 53 48 40 51 62 55 53 44 36 37
24 24 25 28 27 32 34 40 46 48 58 58 56 61 53 52 57 51 52 56 59 58 55 57 58 52 51 52 50 54 56 58 58 56 52 49 46 46 53 55 51 51 45 46
20 19 21 22 21 27 32 42 48 53 59 78 58 61 69 67 50 43 41 51 56 58 56 55 53 53 54 55 53 52 51 54 54 54 55 50 51 50 46 52 56 56 54 50
20 19 17 19 22 24 33 47 74 79 83 80 56 61 54 48 46 41 40 47 57 54 56 60 63 60 57 58 57 55 54 57 55 54 55 56 55 48 46 48 52 56 57 56
33 32 22 21 24 31 40 42 76 75 92 77 57 72 60 42 41 39 39 51 56 54 51 57 60 61 57 56 57 58 56 61 59 57 57 56 49 46 50 47 50 55 58 56
38 29 23 22 24 22 35 47 44 69 60 72 66 56 44 37 44 45 51 58 56 53 52 58 59 61 58 56 58 57 58 60 58 55 54 55 50 46 50 54 54 53 54 53
34 29 23 23 29 28 36 38 54 70 75 67 64 55 63 45 50 54 56 59 55 51 51 56 58 62 58 53 54 58 57 59 60 58 53 53 50 48 50 52 52 50 52 50
25 35 29 28 33 44 42 48 62 60 67 65 74 63 49 42 53 56 51 52 55 51 52 54 54 60 58 54 56 58 58 58 60 58 58 55 53 49 51 50 52 51 50 50
27 40 42 32 25 29 41 46 52 66 65 79 72 61 39 45 47 54 54 54 53 50 50 52 55 62 61 57 58 58 55 52 52 54 57 56 55 53 51 49 52 50 49 52
35 45 57 35 30 29 37 46 52 60 69 72 64 65 45 50 51 54 58 55 52 51 51 54 58 62 62 61 60 58 55 53 55 57 58 59 59 55 50 47 52 52 49 51
31 43 39 51 34 38 38 46 46 46 63 63 60 40 40 53 56 61 56 53 52 50 51 54 57 59 59 61 62 57 55 54 56 58 59 59 59 53 48 48 49 51 51 52
36 41 39 35 27 31 33 43 49 41 46 42 44 38 36 52 57 60 55 53 53 53 52 53 56 58 58 61 62 59 53 54 55 58 57 56 57 55 49 48 47 51 54 55
51 39 40 50 36 34 32 40 47 40 47 42 46 38 33 53 58 58 55 52 52 53 50 50 52 56 59 59 60 58 52 53 55 57 56 56 58 54 48 48 46 48 55 53
62 64 63 48 42 40 47 43 53 49 45 45 54 37 48 52 54 56 56 50 50 50 48 49 50 54 58 59 56 58 51 52 56 56 55 57 57 54 48 48 45 42 51 50
59 57 68 70 50 62 34 34 43 40 43 41 36 40 42 41 45 48 48 49 48 47 46 47 47 50 54 57 55 50 50 51 54 57 55 57 57 53 49 48 43 41 48 50
62 63 84 76 74 48 33 39 38 37 32 44 35 36 38 44 45 43 49 45 45 44 43 43 46 48 53 56 53 52 55 54 56 57 54 55 54 51 49 46 44 43 48 53
63 61 71 90 64 66 43 31 32 26 41 30 38 39 37 43 48 43 47 47 49 44 41 41 46 48 54 56 54 54 57 58 58 53 48 49 51 46 46 43 44 46 48 50
81 80 75 86 71 48 38 35 27 42 43 32 33 34 46 42 34 27 44 48 42 44 44 42 46 49 52 56 56 57 57 56 46 43 44 46 46 41 39 44 46 46 48 54
88 94 86 81 76 45 40 28 32 38 31 26 29 31 43 38 32 33 43 46 49 49 48 45 47 48 52 56 56 58 58 44 46 44 44 42 43 41 41 45 46 48 50 55
82 79 82 67 65 53 50 50 54 43 34 28 26 28 33 38 34 36 38 50 48 46 44 45 46 50 53 56 54 56 51 52 49 48 46 42 42 41 40 45 46 49 52 55
66 76 73 61 64 71 69 62 60 55 51 42 31 29 36 32 32 34 38 48 49 45 43 45 47 53 56 56 54 46 51 48 49 50 46 43 43 44 43 43 42 44 47 53
84 81 85 75 71 62 62 70 68 59 56 53 45 27 27 29 27 29 40 48 47 42 42 44 47 52 53 55 52 52 50 52 54 50 49 45 44 43 44 43 41 42 39 39
74 81 100 97 70 81 74 68 65 64 63 61 54 35 24 24 27 28 36 45 46 42 41 44 46 49 52 55 53 52 48 49 51 55 54 47 45 45 43 44 46 46 47 46
Wind_Speed
0 4 7 10 7 6 6 8 7 3 5 5 1 5 8 6 6 8 8 6 6 11 8 10 11 14 12 12 19 23 24 21 19 19 19 19 21 20 20 20 19 19 18 19
4 7 8 6 6 7 7 7 4 4 4 5 4 2 2 5 3 6 11 9 8 6 6 9 10 9 11 13 16 22 24 22 18 14 17 17 20 19 20 19 20 19 18 19
7 4 13 7 5 8 4 11 6 7 5 5 7 2 4 4 4 7 6 8 10 15 12 8 12 12 11 11 13 19 21 17 15 16 21 21 20 18 18 19 20 19 18 19
6 4 6 8 8 7 6 6 11 14 7 5 3 4 6 10 12 7 9 11 13 11 7 11 16 15 14 14 13 15 19 20 19 17 16 15 17 19 17 18 17 17 17 19
9 8 9 5 8 10 6 14 10 9 6 6 2 2 5 8 8 13 17 13 12 12 13 12 17 18 15 15 15 17 21 20 19 16 13 15 18 18 16 15 16 16 17 18
7 2 7 10 5 9 8 10 7 5 3 1 8 6 4 8 20 23 13 15 14 12 10 12 21 22 19 17 18 19 21 20 19 17 16 15 18 18 16 14 15 15 15 16
4 11 3 4 7 2 6 8 3 1 1 4 4 4 11 9 8 16 23 18 16 16 14 13 16 22 22 21 20 20 22 21 20 18 16 15 15 14 14 13 14 13 13 13
7 4 12 7 7 8 6 8 6 5 4 3 4 7 6 10 11 14 9 11 14 15 15 14 19 23 26 24 22 21 22 23 20 17 15 14 13 13 12 12 12 12 12 11
6 6 3 7 5 14 5 5 8 7 3 4 4 7 7 5 6 8 11 18 20 19 18 18 22 25 28 28 26 24 23 22 20 18 16 15 13 12 12 11 11 11 11 9
6 3 5 7 6 3 9 10 4 3 7 4 3 6 6 4 8 8 12 17 18 18 18 17 23 25 28 30 27 26 24 24 21 18 17 15 13 11 11 10 10 10 10 9
4 3 3 7 8 8 4 4 4 6 3 6 3 6 7 12 10 15 16 17 19 20 19 19 23 25 29 33 30 29 26 24 22 19 18 15 13 11 11 10 9 9 9 8
7 3 4 5 2 3 6 8 7 6 5 0 5 6 2 4 7 8 6 8 12 15 17 16 23 25 27 33 33 30 27 24 21 18 17 15 13 12 11 11 10 8 8 7
8 3 1 2 3 3 4 4 6 6 4 7 6 6 1 2 1 6 11 11 13 16 16 15 19 24 26 29 33 31 28 25 23 20 18 17 15 13 12 11 10 9 7 6
10 5 8 7 3 6 4 4 5 7 5 6 7 5 5 4 6 6 10 12 14 17 18 17 14 21 24 28 32 33 30 27 25 22 21 20 17 14 13 12 10 8 7 5
5 7 4 5 3 4 6 8 10 11 7 13 7 9 7 10 10 8 8 13 14 15 16 17 16 20 25 26 29 33 32 29 27 25 23 21 18 16 14 13 10 9 8 7
5 3 4 5 6 7 5 8 12 9 5 5 8 6 4 5 8 8 14 16 16 18 19 18 18 23 25 28 31 34 34 32 30 28 26 23 21 19 16 14 12 11 10 7
5 1 3 3 3 5 5 10 10 4 4 8 6 7 7 5 9 12 14 17 19 20 21 19 19 27 30 32 35 34 37 35 33 31 28 26 23 21 18 16 13 12 10 7
3 2 1 4 4 5 6 8 13 14 9 7 5 6 11 9 11 10 14 20 19 18 20 19 25 29 32 33 36 38 38 38 36 34 30 27 26 24 20 18 13 11 10 8
8 3 1 5 4 5 1 4 8 7 6 9 8 8 7 5 5 3 10 12 18 23 20 30 36 36 33 35 38 37 36 38 37 37 34 31 29 26 22 20 16 12 12 10
4 2 2 1 6 8 6 3 7 5 5 6 8 8 8 6 4 7 11 13 12 17 24 27 32 34 34 35 39 38 35 36 36 39 37 33 30 28 25 21 18 15 13 10
4 2 5 2 1 4 5 3 4 8 7 7 10 10 8 6 10 7 8 11 20 23 25 28 32 34 38 38 40 35 35 36 43 40 37 34 31 28 25 22 19 16 13 12
6 2 2 2 3 1 3 3 5 4 2 3 4 6 8 9 7 6 8 9 11 15 26 33 31 31 33 39 41 36 35 46 42 41 38 35 33 29 26 23 20 17 15 13
4 5 3 4 1 3 5 4 3 3 2 3 1 3 7 7 7 6 7 8 13 21 27 33 33 31 32 39 41 36 43 40 41 40 39 36 33 31 28 26 23 20 18 15
3 6 3 3 3 4 7 6 6 6 5 5 4 2 5 5 5 5 6 6 10 18 24 29 28 28 30 37 38 47 39 44 43 40 39 37 35 33 29 27 25 22 20 17
3 6 1 5 3 4 2 5 6 7 4 8 7 2 1 3 2 2 4 7 8 17 23 30 31 30 33 38 41 36 39 42 40 39 39 38 37 35 32 29 27 24 19 15
3 4 3 1 5 3 4 5 7 8 8 7 5 5 2 1 3 2 3 5 11 16 23 25 27 25 28 33 34 37 42 44 41 34 37 40 39 37 34 31 26 21 15 14
Wind_Direction
121 116 189 191 179 158 140 129 129 164 163 99 246 154 188 155 138 150 145 143 161 130 145 142 128 128 123 117 137 143 134 132 129 119 109 101 95 93 88 84 81 79 80 76
56 218 208 161 167 145 142 135 127 71 121 101 158 150 141 191 194 177 163 166 162 128 142 146 129 123 123 123 128 146 143 145 138 132 124 114 108 98 94 89 81 79 79 77
169 222 153 153 162 141 186 161 178 150 132 59 115 23 189 221 195 171 185 176 171 166 164 157 151 140 133 124 127 143 149 151 149 143 131 119 112 107 97 86 80 75 79 76
223 212 155 165 184 151 165 194 138 138 127 177 177 229 221 204 208 197 192 191 184 170 153 160 164 160 148 135 132 135 150 153 149 147 138 134 123 107 96 94 92 84 80 79
222 179 159 186 195 161 195 140 151 159 113 117 190 100 247 155 215 218 211 200 193 179 168 170 168 163 156 147 143 147 145 150 153 158 154 137 121 115 116 110 101 93 85 84
204 171 158 179 171 175 127 99 53 61 82 92 200 154 249 181 209 221 209 201 185 171 166 160 169 167 162 155 153 151 148 146 153 158 151 146 138 133 126 119 113 101 93 85
182 226 232 136 126 120 129 115 92 23 280 214 155 138 238 217 233 206 206 193 175 167 161 162 161 166 163 160 156 156 149 145 150 152 147 145 145 140 136 130 114 109 98 88
180 197 183 191 169 167 184 150 148 160 169 180 167 216 245 216 198 206 199 162 160 170 172 170 169 169 169 164 160 159 154 149 152 151 151 154 153 147 135 123 118 110 104 93
149 250 159 172 146 153 209 182 162 98 27 93 205 280 307 194 193 179 158 160 173 174 173 170 170 171 174 170 167 163 161 158 156 157 156 159 155 145 140 135 127 120 108 101
203 182 208 170 111 76 165 152 105 24 143 185 264 283 229 240 210 171 168 182 180 173 170 169 170 169 177 175 171 169 166 165 162 163 165 161 152 147 146 144 136 123 118 109
172 133 242 134 201 156 132 140 65 113 145 165 154 255 218 222 193 187 196 184 176 175 172 170 168 170 175 177 175 174 173 170 170 169 167 160 154 156 158 154 144 137 126 116
189 156 200 198 307 189 153 160 148 164 235 134 156 251 230 255 222 177 183 170 164 166 168 166 163 162 169 175 178 178 176 175 175 171 169 166 166 168 166 164 156 151 142 129
170 234 82 63 354 358 150 158 122 107 95 186 152 253 185 14 184 168 153 157 158 159 162 161 158 168 170 176 182 183 181 181 178 176 175 175 178 179 175 170 169 161 151 146
143 155 178 198 168 146 142 147 148 141 164 166 214 165 193 183 173 156 153 154 161 167 167 166 165 169 172 178 182 186 185 186 182 182 182 184 187 185 184 180 173 168 164 161
122 191 169 197 172 145 166 176 173 194 177 197 204 190 201 189 193 169 152 148 154 167 171 173 172 172 174 177 183 188 187 187 186 186 189 192 190 189 187 183 178 179 179 178
5 234 143 209 206 183 192 203 191 203 143 86 157 208 209 107 105 143 164 166 172 177 182 180 176 172 174 179 184 187 190 190 190 191 194 193 192 190 189 187 186 188 186 182
4 129 105 224 169 129 283 206 181 166 166 144 161 210 159 158 171 175 175 179 183 183 182 182 182 179 180 183 184 185 192 193 194 195 196 195 194 193 191 189 191 192 188 190
286 9 358 183 105 193 254 184 176 184 185 176 128 162 180 186 198 179 189 181 187 185 186 186 185 184 185 184 184 188 192 195 196 198 198 197 197 195 192 191 192 189 191 198
198 130 114 142 182 285 197 177 148 153 237 181 167 179 200 85 76 280 193 204 191 186 186 187 184 182 181 181 185 186 188 193 195 199 200 199 199 195 193 194 193 191 198 206
113 97 122 66 162 225 238 234 147 92 235 195 164 167 162 135 145 238 195 188 192 189 182 178 181 179 178 182 182 182 184 188 193 200 202 202 200 198 197 196 195 198 204 211
339 348 173 169 175 288 250 272 153 150 231 188 183 181 143 179 201 217 165 196 195 183 177 175 173 177 183 181 181 181 184 190 202 203 203 202 201 200 201 198 200 202 206 208
184 313 232 92 77 234 348 79 143 229 176 139 172 174 176 222 213 153 195 199 170 171 165 171 175 183 182 181 181 184 189 201 201 202 202 202 201 200 199 200 200 203 206 205
131 186 248 167 256 320 333 46 352 339 35 31 287 178 197 196 229 192 224 181 179 176 178 176 178 176 180 184 186 184 199 195 198 199 201 201 200 200 199 197 199 199 203 208
36 37 301 121 74 350 0 347 2 12 21 337 314 220 186 207 176 186 230 191 174 177 179 176 172 175 178 186 189 200 192 199 196 196 200 201 200 198 199 201 203 204 205 208
281 318 302 297 72 131 323 18 327 340 4 24 356 18 190 197 161 174 226 208 185 180 175 176 179 182 185 185 192 192 195 194 189 194 197 200 201 199 198 202 204 209 217 225
335 351 353 344 350 296 259 329 330 3 14 4 355 342 1 234 192 176 252 216 180 178 176 181 187 185 184 185 186 189 199 196 188 185 192 199 200 200 201 200 202 209 218 220